📊 Raw Sensor Data
Showing records 32851 to 32875 of 84,735 total
| ID | Distance (ft) | Battery V | Battery A | Int Temp (°F) | Int Humid (%) | Ext Temp (°F) | Solar V | RSSI | SNR | Time Stamp |
|---|---|---|---|---|---|---|---|---|---|---|
| 51897 | 14.0 | 4.02 | 0 | 99 | 44 | 87 | 5.10 | -75 | 8 | 09/13/2025 04:15 PM |
| 51896 | 14.9 | 4.02 | 0 | 98 | 44 | 87 | 5.10 | -76 | 7 | 09/13/2025 03:45 PM |
| 51895 | 14.9 | 4.02 | 0 | 96 | 44 | 84 | 5.10 | -74 | 7 | 09/13/2025 03:30 PM |
| 51894 | 14.9 | 4.02 | 5 | 97 | 43 | 86 | 5.10 | -78 | 7 | 09/13/2025 03:15 PM |
| 51893 | 15.0 | 4.02 | 5 | 97 | 42 | 85 | 5.10 | -75 | 7 | 09/13/2025 03:00 PM |
| 51892 | 14.9 | 4.02 | 0 | 96 | 42 | 81 | 5.10 | -74 | 8 | 09/13/2025 02:45 PM |
| 51891 | 14.9 | 4.02 | 5 | 95 | 42 | 85 | 5.10 | -79 | 8 | 09/13/2025 02:30 PM |
| 51890 | 14.9 | 4.02 | 0 | 94 | 42 | 82 | 5.10 | -76 | 8 | 09/13/2025 02:15 PM |
| 51889 | 15.0 | 4.03 | 5 | 95 | 41 | 82 | 5.10 | -74 | 8 | 09/13/2025 02:00 PM |
| 51888 | 14.9 | 4.02 | 5 | 95 | 40 | 84 | 5.10 | -77 | 8 | 09/13/2025 01:45 PM |
| 51887 | 14.9 | 4.02 | 5 | 93 | 41 | 84 | 5.10 | -74 | 8 | 09/13/2025 01:30 PM |
| 51886 | 15.0 | 4.04 | 5 | 91 | 41 | 84 | 5.10 | -74 | 7 | 09/13/2025 01:15 PM |
| 51885 | 15.0 | 4.13 | 0 | 89 | 42 | 81 | 5.10 | -77 | 8 | 09/13/2025 01:00 PM |
| 51884 | 13.7 | 4.01 | 0 | 89 | 41 | 81 | 5.10 | -74 | 8 | 09/13/2025 12:45 PM |
| 51883 | 15.0 | 4.01 | 0 | 88 | 41 | 81 | 5.10 | -77 | 8 | 09/13/2025 12:30 PM |
| 51882 | 14.9 | 4.09 | 5 | 87 | 41 | 81 | 5.10 | -75 | 7 | 09/13/2025 12:15 PM |
| 51881 | 15.0 | 4.01 | 5 | 86 | 41 | 78 | 5.10 | -76 | 8 | 09/13/2025 12:00 PM |
| 51880 | 13.9 | 4.01 | 0 | 83 | 42 | 78 | 5.10 | -74 | 8 | 09/13/2025 11:30 AM |
| 51879 | 15.1 | 4.01 | 5 | 82 | 41 | 81 | 5.10 | -75 | 8 | 09/13/2025 11:15 AM |
| 51878 | 15.0 | 4.01 | 0 | 81 | 41 | 81 | 5.10 | -74 | 8 | 09/13/2025 11:00 AM |
| 51877 | 15.0 | 4.01 | 5 | 79 | 41 | 78 | 5.10 | -72 | 7 | 09/13/2025 10:45 AM |
| 51876 | 15.0 | 4.06 | 5 | 77 | 41 | 78 | 5.10 | -74 | 8 | 09/13/2025 10:30 AM |
| 51875 | 13.9 | 4.01 | 0 | 76 | 42 | 78 | 5.10 | -72 | 7 | 09/13/2025 10:15 AM |
| 51874 | 15.0 | 4.01 | 5 | 74 | 41 | 77 | 5.10 | -74 | 8 | 09/13/2025 10:00 AM |
| 51873 | 13.5 | 4.01 | 5 | 73 | 41 | 76 | 5.10 | -73 | 7 | 09/13/2025 09:45 AM |